Weather reports worldwide

Advertisment
Montauban, France (7540): temperature & dewpoint: 15.05.2019 13:00:00 - 21.05.2019 13:00:00 (CEST)Montauban, France (7540): temperature 5cm: 15.05.2019 13:00:00 - 21.05.2019 13:00:00 (CEST)Montauban, France (7540): temperature -20cm & temperature -100cm: 15.05.2019 13:00:00 - 21.05.2019 13:00:00 (CEST)Montauban, France (7540): wind speed & gusts: 15.05.2019 13:00:00 - 21.05.2019 13:00:00 (CEST)Montauban, France (7540): wind direction: 15.05.2019 13:00:00 - 21.05.2019 13:00:00 (CEST)Montauban, France (7540): reduced air pressure: 15.05.2019 13:00:00 - 21.05.2019 13:00:00 (CEST)Montauban, France (7540): visibility: 15.05.2019 13:00:00 - 21.05.2019 13:00:00 (CEST)Montauban, France (7540): sunshine duration: 15.05.2019 13:00:00 - 21.05.2019 13:00:00 (CEST)Montauban, France (7540): precipitation: 15.05.2019 13:00:00 - 21.05.2019 13:00:00 (CEST)
Date & Time tt [°C] td [°C] tt 5cm [°C] tt -20cm [°C] tt -100cm [°C] ff [km/h] ff [kn] fx [km/h] fx [kn] dd ppp [hPa] vv [km] sd [min] rr [mm]
21.05.2019 13:00:00 17,4 11,0 19,3 15,4 15,0 7 4 18 10 NNW 1018,4 20 17 0,0
21.05.2019 12:00:00 15,4 11,8 16,1 15,5 15,1 9 5 16 9 WNW 1018,8 18 12 0,0
21.05.2019 11:00:00 12,6 11,3 13,5 15,6 15,1 3 2 13 7 N 1019,0 8 0 0,0
21.05.2019 10:00:00 11,4 10,8 11,9 15,6 15,0 9 5 14 8 WNW 1018,6 1,7 0 0,0
21.05.2019 09:00:00 10,7 10,2 11,3 15,7 15,1 9 5 14 8 NW 1018,3 0,7 5 0,0
21.05.2019 08:00:00 10,4 9,8 10,0 15,8 15,1 11 6 16 9 WNW 1017,9 1,0 2 0,0
21.05.2019 07:00:00 10,3 9,7 6,7 15,9 15,1 4 2 8 4 WNW 1017,4 7 0 0,2
21.05.2019 06:00:00 9,7 8,9 5,1 16,0 15,1 3 2 6 3 W 1017,0 12 0 0,0
21.05.2019 05:00:00 10,2 9,1 5,7 16,1 15,0 2 1 7 4 SW 1016,8 18 0 0,0
21.05.2019 04:00:00 10,9 9,5 6,5 16,2 15,1 2 1 9 5 W 1016,8 20 0 0,0
21.05.2019 03:00:00 11,1 9,7 7,4 16,2 15,1 3 2 8 4 WSW 1016,7 20 0 0,0
21.05.2019 02:00:00 11,4 9,6 6,6 16,4 15,1 4 2 8 4 WSW 1016,7 20 0 0,0
21.05.2019 01:00:00 12,0 9,4 7,8 16,4 15,1 4 2 9 5 W 1016,9 20 0 0,0
21.05.2019 00:00:00 12,7 10,2 9,0 16,4 15,1 4 2 11 6 WNW 1016,6 20 0 0,0
20.05.2019 23:00:00 13,4 10,6 8,9 16,4 15,1 6 3 10 5 WNW 1016,2 20 0 0,0
20.05.2019 22:00:00 14,5 10,7 11,2 16,4 15,1 6 3 14 7 WNW 1015,3 20 0 0,0
20.05.2019 21:00:00 16,0 10,7 14,2 16,3 15,1 10 5 22 12 WNW 1014,8 20 38 0,0
20.05.2019 20:00:00 17,2 11,2 17,2 16,2 15,1 11 6 25 13 NW 1014,5 20 28 0,0
20.05.2019 19:00:00 17,1 10,9 15,1 16,1 15,1 10 5 23 12 NNW 1014,3 20 0 0,0
20.05.2019 18:00:00 15,4 11,6 14,3 16,0 15,1 16 9 35 19 NW 1014,2 20 0 0,2
20.05.2019 17:00:00 19,2 9,1 20,1 15,9 15,1 12 6 29 15 WNW 1013,5 20 35 0,0
20.05.2019 16:00:00 19,6 8,6 18,6 15,7 15,1 16 9 28 15 W 1013,8 20 32 0,0
20.05.2019 15:00:00 17,4 9,0 18,6 15,6 15,1 18 10 43 23 WNW 1014,1 20 28 0,0
20.05.2019 14:00:00 17,1 9,0 16,8 15,5 15,1 13 7 27 15 WNW 1014,3 20 20 0,0
20.05.2019 13:00:00 17,7 10,8 18,6 15,5 15,1 17 9 29 16 W 1014,3 20 47 0,0
20.05.2019 12:00:00 15,5 9,6 17,7 15,5 15,1 14 8 26 14 NW 1014,6 20 29 0,0
20.05.2019 11:00:00 13,7 10,7 13,8 15,5 15,1 9 5 23 13 NW 1015,0 20 2 0,0
20.05.2019 10:00:00 12,9 10,4 12,2 15,6 15,1 13 7 23 13 WNW 1014,8 18 4 0,0
20.05.2019 09:00:00 11,5 9,7 11,1 15,6 15,1 14 8 27 15 W 1014,6 15 0 0,0
20.05.2019 08:00:00 11,1 9,5 10,5 15,7 15,1 13 7 24 13 W 1014,2 14 0 0,0
20.05.2019 07:00:00 10,7 9,5 10,2 15,7 15,1 11 6 23 12 W 1013,8 12 0 0,0
20.05.2019 06:00:00 10,7 9,5 10,2 15,8 15,1 11 6 21 12 W 1013,3 12 0 0,0
20.05.2019 05:00:00 10,9 9,5 10,3 15,9 15,1 12 6 22 12 W 1013,4 13 0 0,0
20.05.2019 04:00:00 10,9 9,3 9,6 15,9 15,1 9 5 21 11 W 1013,4 15 0 0,0
20.05.2019 03:00:00 11,5 9,6 10,5 16,0 15,1 11 6 26 14 W 1013,3 18 0 0,0
20.05.2019 02:00:00 12,0 9,9 11,3 16,0 15,1 12 7 22 12 W 1013,4 20 0 0,0
20.05.2019 01:00:00 12,4 10,5 11,5 16,0 15,1 12 6 23 13 W 1013,6 20 0 0,0
20.05.2019 00:00:00 12,5 10,6 11,3 16,1 15,1 14 8 24 13 W 1013,4 20 0 0,0
19.05.2019 23:00:00 12,6 10,1 11,6 16,1 15,1 11 6 18 10 W 1013,2 20 0 0,0
19.05.2019 22:00:00 12,7 10,4 11,7 16,0 15,1 9 5 18 10 W 1012,5 20 0 0,0
19.05.2019 21:00:00 12,9 10,1 12,2 16,0 15,1 9 5 19 11 WNW 1012,0 20 0 0,0
19.05.2019 20:00:00 13,3 9,5 12,4 16,0 15,1 18 10 41 22 NW 1011,3 20 0 0,0
19.05.2019 19:00:00 15,0 10,0 14,7 15,9 15,1 19 11 32 17 WNW 1010,8 20 0 0,0
19.05.2019 18:00:00 15,5 10,5 15,5 15,9 15,1 14 7 31 17 WNW 1010,5 20 5 0,0
19.05.2019 17:00:00 14,9 10,7 12,3 15,8 15,1 16 8 27 15 WNW 1010,7 20 0 0,8
19.05.2019 16:00:00 13,1 10,6 12,1 15,8 15,1 21 11 41 22 WNW 1011,0 15 0 0,4
19.05.2019 15:00:00 15,1 8,8 14,8 15,7 15,1 13 7 23 12 NW 1010,5 20 0 0,0
19.05.2019 14:00:00 15,0 9,1 14,2 15,7 15,1 13 7 27 15 WNW 1010,4 20 9 0,0
19.05.2019 13:00:00 14,3 8,9 15,8 15,7 15,1 14 8 22 12 W 1010,4 20 9 0,0
19.05.2019 12:00:00 13,4 9,3 14,4 15,7 15,1 11 6 16 9 WNW 1010,6 20 0 0,0
19.05.2019 11:00:00 12,9 9,0 13,9 15,7 15,1 9 5 16 9 W 1010,6 20 0 0,0
19.05.2019 10:00:00 11,6 8,8 12,2 15,7 15,1 8 4 15 8 W 1010,5 20 0 0,0
19.05.2019 09:00:00 10,7 8,3 10,9 15,8 15,1 10 5 16 8 W 1010,5 20 0 0,0
19.05.2019 08:00:00 10,3 7,9 9,4 15,9 15,1 10 5 15 8 W 1010,3 20 0 0,0
19.05.2019 07:00:00 10,1 7,3 9,4 16,0 15,1 5 3 12 6 W 1010,1 20 0 0,0
19.05.2019 06:00:00 10,3 7,5 9,6 16,1 15,1 5 3 11 6 W 1010,0 20 0 0,0
19.05.2019 05:00:00 10,4 7,5 9,6 16,1 15,1 5 3 11 6 W 1009,9 20 0 0,0
19.05.2019 04:00:00 10,4 7,3 9,7 16,1 15,1 6 3 13 7 WNW 1010,0 20 0 0,0
19.05.2019 03:00:00 10,5 7,2 9,8 16,2 15,1 8 4 17 9 W 1010,3 20 0 0,0
19.05.2019 02:00:00 10,7 7,4 9,5 16,3 15,1 7 4 14 8 W 1010,6 20 0 0,0
19.05.2019 01:00:00 11,0 7,9 9,8 16,3 15,1 7 4 16 9 W 1010,8 20 0 0,0
19.05.2019 00:00:00 11,3 8,0 10,1 16,3 15,1 8 4 23 12 WNW 1011,0 20 0 0,0
18.05.2019 23:00:00 11,7 8,2 9,8 16,3 15,1 9 5 21 11 WNW 1011,0 20 0 0,0
18.05.2019 22:00:00 11,8 7,9 10,4 16,4 15,1 13 7 25 13 W 1010,7 20 0 0,0
18.05.2019 21:00:00 12,5 8,4 11,2 16,3 15,1 17 9 40 21 W 1010,1 20 31 0,0
18.05.2019 20:00:00 13,4 7,4 13,1 16,3 15,1 18 10 36 19 WNW 1009,4 20 16 0,0
18.05.2019 19:00:00 14,3 8,0 14,6 16,2 15,1 21 11 39 21 W 1009,0 20 26 0,0
18.05.2019 18:00:00 15,0 7,3 15,9 16,0 15,1 18 10 44 24 WNW 1008,5 20 23 0,0
18.05.2019 17:00:00 16,1 8,1 16,6 16,0 15,1 19 10 37 20 NW 1007,9 20 26 0,0
18.05.2019 16:00:00 16,8 8,2 17,8 15,9 15,1 17 9 32 18 WNW 1007,6 20 18 0,0
18.05.2019 15:00:00 16,0 7,7 17,8 15,8 15,1 13 7 25 13 WNW 1007,9 20 25 0,0
18.05.2019 14:00:00 14,9 7,9 14,9 15,8 15,1 13 7 38 20 W 1008,3 20 2 0,0
18.05.2019 13:00:00 14,5 8,0 15,9 15,8 15,1 16 9 29 16 W 1008,6 20 20 0,0
18.05.2019 12:00:00 13,8 8,6 13,9 15,8 15,1 15 8 30 16 WNW 1008,8 20 3 0,0
18.05.2019 11:00:00 12,5 8,0 13,1 15,9 15,1 18 10 32 18 W 1008,9 20 0 0,0
18.05.2019 10:00:00 12,0 8,3 12,4 15,9 15,1 17 9 32 18 W 1008,7 20 0 0,0
18.05.2019 09:00:00 11,7 9,1 10,9 16,0 15,1 13 7 25 14 W 1008,6 20 0 0,0
18.05.2019 08:00:00 10,9 8,8 10,3 16,1 15,1 13 7 29 15 W 1008,7 20 0 0,0
18.05.2019 07:00:00 10,8 9,2 10,1 16,1 15,1 9 5 19 10 W 1008,2 20 0 0,0
18.05.2019 06:00:00 10,8 9,1 10,1 16,1 15,1 11 6 22 12 W 1007,9 20 0 0,0
18.05.2019 05:00:00 11,0 9,3 10,3 16,2 15,1 10 5 24 13 W 1007,9 20 0 0,0
18.05.2019 04:00:00 11,4 9,8 10,3 16,3 15,1 11 6 29 15 W 1008,0 20 0 0,0
18.05.2019 03:00:00 11,6 10,0 10,7 16,3 15,1 16 9 27 15 W 1008,3 16 0 0,2
18.05.2019 02:00:00 11,7 10,6 10,6 16,4 15,0 12 7 23 13 W 1008,5 15 0 0,4
18.05.2019 01:00:00 11,5 10,2 10,6 16,4 15,1 8 5 22 12 W 1008,4 15 0 0,2
18.05.2019 00:00:00 11,9 10,1 11,0 16,5 15,1 12 6 24 13 W 1008,4 20 0 0,0
17.05.2019 23:00:00 12,1 10,7 11,3 16,5 15,1 14 8 34 18 W 1008,3 16 0 0,6
17.05.2019 22:00:00 12,5 10,9 11,6 16,6 15,1 22 12 35 19 W 1007,5 10 0 0,4
17.05.2019 21:00:00 12,6 10,8 11,7 16,5 15,0 11 6 29 15 W 1006,8 20 0 0,0
17.05.2019 20:00:00 13,3 10,7 12,4 16,6 15,1 13 7 25 14 W 1006,0 20 0 0,2
17.05.2019 19:00:00 13,5 12,1 12,7 16,6 15,0 12 7 28 15 W 1005,8 20 0 0,2
17.05.2019 18:00:00 13,4 12,0 12,5 16,6 15,1 13 7 28 15 W 1006,0 15 0 0,2
17.05.2019 17:00:00 12,4 11,0 11,6 16,6 15,0 14 7 43 23 NW 1006,0 13 0 0,8
17.05.2019 16:00:00 13,4 11,1 13,2 16,6 15,0 9 5 15 8 NW 1005,3 20 0 0,0
17.05.2019 15:00:00 13,2 10,4 14,7 16,6 15,0 6 4 18 10 NNE 1004,6 20 0 0,0
17.05.2019 14:00:00 13,6 10,4 13,5 16,6 15,0 11 6 20 11 E 1003,9 20 0 0,0
17.05.2019 13:00:00 13,1 9,9 12,4 16,7 15,0 10 5 29 15 E 1003,6 12 0 0,0
17.05.2019 12:00:00 13,4 10,4 12,8 16,8 15,0 14 7 27 15 E 1002,9 13 0 0,0
17.05.2019 11:00:00 13,2 11,8 12,4 16,9 15,0 8 5 19 10 NE 1002,7 12 0 0,0
17.05.2019 10:00:00 12,4 11,1 11,4 17,0 15,0 9 5 19 10 NE 1002,8 8 0 1,0
17.05.2019 09:00:00 11,7 10,6 11,0 17,1 15,0 12 7 23 13 NE 1002,6 11 0 4,0
17.05.2019 08:00:00 11,6 10,5 11,0 17,2 15,0 8 4 15 8 NNE 1002,7 7 0 6,0
17.05.2019 07:00:00 11,6 10,0 10,9 17,3 15,0 7 4 18 10 NE 1002,6 8 0 4,1
17.05.2019 06:00:00 12,7 11,4 11,6 17,3 15,0 6 4 11 6 N 1002,8 9 0 2,2
17.05.2019 05:00:00 12,9 10,8 11,7 17,4 15,0 5 3 9 5 SE 1003,4 20 0 0,0
17.05.2019 04:00:00 13,8 11,1 11,8 17,5 15,0 3 2 16 8 N 1003,4 19 0 0,6
17.05.2019 03:00:00 14,6 9,6 11,8 17,6 15,0 8 5 18 10 SW 1004,6 20 0 0,0
17.05.2019 02:00:00 15,7 7,7 14,5 17,6 15,0 12 7 27 14 SSW 1004,9 20 0 0,0
17.05.2019 01:00:00 16,5 6,9 15,0 17,7 15,0 11 6 21 12 SSW 1005,5 20 0 0,0
17.05.2019 00:00:00 17,2 7,3 15,3 17,7 15,0 11 6 19 10 S 1005,5 20 0 0,0
16.05.2019 23:00:00 17,7 7,1 12,7 17,7 15,0 14 7 22 12 S 1006,1 20 0 0,0
16.05.2019 22:00:00 18,6 8,8 13,8 17,6 15,0 0 0 6 4 N 1005,7 20 0 0,0
16.05.2019 21:00:00 21,2 5,1 16,7 17,5 14,9 3 2 8 5 N 1005,3 20 0 0,0
16.05.2019 20:00:00 21,6 4,6 19,9 17,4 15,0 6 3 13 7 ENE 1005,5 20 25 0,0
16.05.2019 19:00:00 22,1 6,3 22,5 17,2 14,9 7 4 14 8 SE 1005,7 20 44 0,0
16.05.2019 18:00:00 23,2 4,7 27,1 17,0 14,9 7 4 16 9 ENE 1006,2 20 52 0,0
16.05.2019 17:00:00 23,1 5,9 22,6 16,8 14,9 5 3 16 9 SSE 1007,1 20 17 0,0
16.05.2019 16:00:00 21,9 4,9 23,8 16,6 14,9 8 4 15 8 ESE 1007,6 20 50 0,0
16.05.2019 15:00:00 21,4 5,7 25,3 16,5 14,9 6 3 17 9 ESE 1008,5 20 8 0,0
16.05.2019 14:00:00 21,3 6,8 27,8 16,3 14,9 8 4 18 10 SE 1009,2 20 57 0,0
16.05.2019 13:00:00 20,1 6,8 24,6 16,3 14,9 5 3 14 7 S 1009,9 20 41 0,0
16.05.2019 12:00:00 19,1 5,5 24,6 16,2 14,9 5 3 16 8 ESE 1010,6 20 53 0,0
16.05.2019 11:00:00 17,7 5,9 23,0 16,3 14,9 5 3 14 7 SE 1011,4 20 60 0,0
16.05.2019 10:00:00 15,0 4,9 15,7 16,4 14,9 5 3 10 5 E 1012,1 20 53 0,0
16.05.2019 09:00:00 12,4 4,8 9,3 16,6 14,9 5 3 12 6 ENE 1012,6 20 51 0,0
16.05.2019 08:00:00 9,3 4,5 3,9 16,7 14,9 4 2 7 4 E 1012,6 20 18 0,0
16.05.2019 07:00:00 6,8 3,6 2,3 16,9 14,9 2 1 5 3 SE 1012,9 20 7 0,0
16.05.2019 06:00:00 7,1 3,3 2,0 17,0 14,9 2 1 4 2 ESE 1012,8 20 0 0,0
16.05.2019 05:00:00 8,2 3,2 2,5 17,2 14,9 3 2 9 5 ESE 1013,0 20 0 0,0
16.05.2019 04:00:00 8,3 3,3 2,6 17,3 14,8 4 2 6 3 E 1013,8 20 0 0,0
16.05.2019 03:00:00 9,0 3,6 3,4 17,4 14,8 2 1 8 4 E 1014,3 20 0 0,0
16.05.2019 02:00:00 11,5 3,3 4,5 17,5 14,9 5 3 8 4 ENE 1014,4 20 0 0,0
16.05.2019 01:00:00 12,7 3,1 7,9 17,6 14,9 4 2 11 6 ENE 1014,6 20 0 0,0
16.05.2019 00:00:00 14,4 2,6 10,5 17,6 14,8 7 4 15 8 E 1014,8 20 0 0,0
15.05.2019 23:00:00 16,2 2,2 11,3 17,6 14,8 10 5 16 8 ENE 1014,7 20 0 0,0
15.05.2019 22:00:00 18,2 1,2 13,0 17,6 14,8 4 2 11 6 N 1014,6 20 0 0,0
15.05.2019 21:00:00 20,2 1,1 15,2 17,5 14,8 6 3 19 11 N 1013,8 20 40 0,0
15.05.2019 20:00:00 22,1 -0,6 22,5 17,3 14,8 11 6 24 13 NNE 1013,3 20 60 0,0
15.05.2019 19:00:00 22,9 -2,0 26,3 17,2 14,8 12 7 27 14 N 1013,3 20 60 0,0
15.05.2019 18:00:00 23,4 -1,6 27,5 17,0 14,8 9 5 29 16 NNE 1013,3 20 60 0,0
15.05.2019 17:00:00 23,2 -1,7 28,2 16,7 14,8 13 7 29 16 NE 1013,3 19 60 0,0
15.05.2019 16:00:00 22,4 0,8 27,8 16,5 14,8 9 5 24 13 E 1013,8 19 60 0,0
15.05.2019 15:00:00 21,7 0,8 28,6 16,3 14,8 9 5 22 12 N 1014,3 20 60 0,0
15.05.2019 14:00:00 20,6 0,4 27,5 16,2 14,8 10 5 23 13 NNE 1014,8 20 60 0,0
15.05.2019 13:00:00 19,5 1,4 26,1 16,1 14,8 10 6 27 14 N 1015,1 20 60 0,0

tt = temperature
td = dewpoint
tt 5cm = temperature 5cm
tt -20cm = temperature -20cm
tt -100cm = temperature -100cm
ff = wind speed
fx = gusts
dd = wind direction
ppp = reduced air pressure
vv = visibility
sd = sunshine duration
rr = precipitation

Next stations